Regional Weather Roundup
Issued by NWS

Home | Current Version | Previous Version | Text Only | Print | Product List | Glossary On
Versions: 1 2 3 4 5 6 7 8 9 10 11 12 13 14 15 16 17 18 19 20 21 22 23 24 25 26 27 28 29 30 31 32 33 34 35 36 37 38 39 40 41 42 43 44 45 46 47 48 49 50
000
ASUS42 KKEY 292210
RWRKEY

FLORIDA REGIONAL WEATHER ROUNDUP FOR THE FLORIDA KEYS
NATIONAL WEATHER SERVICE KEY WEST FLORIDA
600 PM EDT FRI AUG 29 2014

...SOUTH FLORIDA AND THE KEYS...

CITY           SKY/WX    TMP DP  RH WIND       PRES   REMARKS
FORT MYERS     PTSUNNY   80  71  74 VRB3      29.99F THUNDER
SW REGIONAL AP TSTM      77  69  76 E14       30.00F
NAPLES         CLOUDY    78  32  18 NE7       30.01F
MIAMI          MOSUNNY   88  75  65 SE13      30.02R HX  97
WEST KENDALL   MOSUNNY   90  75  61 SE9       30.01R HX 100
HOMESTEAD      SUNNY     89  77  66 E9        30.01R HX 101
MARATHON       MOSUNNY   89  78  70 E9        29.99R HX 103
BOCA CHICA NAS MOSUNNY   90  79  70 E14       29.98R HX 106
KEY WEST INTL  MOSUNNY   89  77  67 E12       29.98S HX 101

...INTERNATIONAL WEATHER...

CITY           SKY/WX    TMP DP  RH WIND       PRES   REMARKS
NASSAU BAHAMAS NOT AVBL
CANCUN MEXICO  PTSUNNY   88  77  70 SE15      29.90F HX 100
COZUMEL MEXICO PTSUNNY   82  75  78 SE12      29.89F

ADJACENT COASTAL WATERS...

STATION/POSITION TIME  SKY/WX   TEMP    WIND        PRES    WAVE
                                AIR SEA DIR/SP/G            HT/PER
                 (UTC)          (F)     (DEG/KT/KT) (MB)    (FT/S)
PULASKI SHOAL LI 2200            87     120/ 11/ 12 1015.2R
SAND KEY         2200            86      90/ 15/ 17 1015.1R
SOMBRERO KEY     2200            88     100/ 15/ 16 1016.2R
LONG KEY         2200            87 89  110/ 10/ 11 1016.4R
MOLASSES REEF    2200            86 88  110/ 13/ 14 1015.8R
FOWEY ROCKS      2200            86 88  110/ 13/ 13 1016.5R
Buoy 42080       NOT AVBL

$$


USA.gov is the U.S. government's official web portal to all federal, state and local government web resources and services.